Le nostre stazioni meteo in Italia

Pubblicità
Il mio iltempo24.it
Elphin, Gran Bretagna (99153): Temperatura & dewpoint: 13.08.2018 09:00:00 - 19.08.2018 09:00:00 (BST)Elphin, Gran Bretagna (99153): precipitazioni: 13.08.2018 09:00:00 - 19.08.2018 09:00:00 (BST)
Data & Tempo tt [°C] td [°C] rr [mm]
19.08.2018 09:00:00 12,3 10,6 0,0
19.08.2018 08:00:00 11,0 10,1 0,0
19.08.2018 07:00:00 10,5 9,5 0,0
19.08.2018 06:00:00 10,5 9,6 0,0
19.08.2018 05:00:00 10,9 9,9 0,0
19.08.2018 04:00:00 11,2 10,0 0,0
19.08.2018 03:00:00 11,1 9,7 0,0
19.08.2018 02:00:00 11,4 9,5 0,0
19.08.2018 01:00:00 11,8 9,1 0,0
19.08.2018 00:00:00 11,4 8,8 0,0
18.08.2018 23:00:00 11,8 8,6 0,0
18.08.2018 22:00:00 12,0 8,1 0,0
18.08.2018 21:00:00 12,1 8,2 0,0
18.08.2018 20:00:00 12,1 8,8 0,0
18.08.2018 19:00:00 11,8 9,8 0,0
18.08.2018 18:00:00 12,8 8,9 0,0
18.08.2018 17:00:00 13,0 8,6 0,0
18.08.2018 16:00:00 13,4 8,1 0,0
18.08.2018 15:00:00 13,9 8,7 0,0
18.08.2018 14:00:00 14,3 9,6 0,0
18.08.2018 13:00:00 12,6 8,6 0,0
18.08.2018 12:00:00 12,2 8,5 0,0
18.08.2018 11:00:00 11,5 9,5 0,2
18.08.2018 10:00:00 12,5 9,7 0,2
18.08.2018 09:00:00 12,2 10,0 0,6
18.08.2018 08:00:00 12,5 9,1 0,0
18.08.2018 07:00:00 12,6 9,2 0,0
18.08.2018 06:00:00 12,2 9,3 0,2
18.08.2018 05:00:00 11,6 10,0 0,0
18.08.2018 04:00:00 12,7 8,9 0,0
18.08.2018 03:00:00 12,6 8,7 0,0
18.08.2018 02:00:00 12,6 8,5 0,2
18.08.2018 01:00:00 11,9 9,3 0,0
18.08.2018 00:00:00 12,4 9,2 0,0
17.08.2018 23:00:00 12,5 9,1 0,0
17.08.2018 22:00:00 12,9 9,0 0,0
17.08.2018 21:00:00 12,7 10,3 0,2
17.08.2018 20:00:00 13,0 10,4 0,2
17.08.2018 19:00:00 14,0 11,8 0,2
17.08.2018 18:00:00 13,8 12,6 0,2
17.08.2018 17:00:00 14,2 12,6 0,2
17.08.2018 16:00:00 14,0 12,5 0,0
17.08.2018 15:00:00 13,3 12,3 0,8
17.08.2018 14:00:00 13,0 12,1 0,8
17.08.2018 13:00:00 12,9 11,4 0,2
17.08.2018 12:00:00 13,1 10,7 0,0
17.08.2018 11:00:00 12,1 10,3 0,0
17.08.2018 10:00:00 12,0 10,5 0,0
17.08.2018 09:00:00 11,9 9,8 0,0
17.08.2018 08:00:00 10,4 9,3 0,0
17.08.2018 07:00:00 11,1 8,2 0,0
17.08.2018 06:00:00 10,9 8,5 0,0
17.08.2018 05:00:00 11,0 8,2 0,2
17.08.2018 04:00:00 10,9 9,5 0,4
17.08.2018 03:00:00 10,9 9,5 0,2
17.08.2018 02:00:00 10,9 9,4 1,4
17.08.2018 01:00:00 11,6 8,6 0,0
17.08.2018 00:00:00 11,3 9,1 0,0
16.08.2018 23:00:00 11,7 9,6 0,2
16.08.2018 22:00:00 11,6 9,7 0,6
16.08.2018 21:00:00 11,9 10,0 0,0
16.08.2018 20:00:00 11,8 10,3 0,8
16.08.2018 19:00:00 11,7 10,2 0,6
16.08.2018 18:00:00 12,7 10,2 0,0
16.08.2018 17:00:00 14,9 9,4 0,0
16.08.2018 16:00:00 14,1 10,0 0,0
16.08.2018 15:00:00 15,6 10,8 0,0
16.08.2018 14:00:00 14,4 9,5 0,0
16.08.2018 13:00:00 13,9 9,8 0,2
16.08.2018 12:00:00 11,5 9,6 3,8
16.08.2018 11:00:00 14,3 10,3 0,0
16.08.2018 10:00:00 12,6 9,0 0,0
16.08.2018 09:00:00 11,9 9,2 0,0
16.08.2018 08:00:00 11,4 9,5 0,2
16.08.2018 07:00:00 11,0 9,2 0,2
16.08.2018 06:00:00 9,7 9,1 1,0
16.08.2018 05:00:00 10,3 8,7 0,2
16.08.2018 04:00:00 10,1 8,1 0,0
16.08.2018 03:00:00 10,1 7,6 0,0
16.08.2018 02:00:00 11,3 8,1 0,0
16.08.2018 01:00:00 10,7 8,0 0,0
16.08.2018 00:00:00 11,1 8,3 0,0
15.08.2018 23:00:00 12,0 8,0 0,0
15.08.2018 22:00:00 10,9 7,2 0,0
15.08.2018 21:00:00 11,9 9,5 2,8
15.08.2018 20:00:00 13,2 10,6 0,2
15.08.2018 19:00:00 13,5 10,2 0,2
15.08.2018 18:00:00 12,9 10,0 0,0
15.08.2018 17:00:00 14,5 9,4 0,2
15.08.2018 16:00:00 13,7 9,9 0,2
15.08.2018 15:00:00 14,7 9,9 0,0
15.08.2018 14:00:00 15,2 10,8 0,0
15.08.2018 13:00:00 15,0 10,2 0,0
15.08.2018 12:00:00 14,9 10,4 0,0
15.08.2018 11:00:00 15,3 12,5 0,2
15.08.2018 10:00:00 15,4 11,7 0,0
15.08.2018 09:00:00 14,6 12,4 0,0
15.08.2018 08:00:00 13,3 12,9 0,4
15.08.2018 07:00:00 12,0 11,7 1,8
15.08.2018 06:00:00 11,9 11,2 0,2
15.08.2018 05:00:00 12,5 11,3 0,0
15.08.2018 04:00:00 13,0 10,7 0,0
15.08.2018 03:00:00 12,5 10,8 0,0
15.08.2018 02:00:00 12,5 10,8 0,0
15.08.2018 01:00:00 12,4 10,0 0,0
15.08.2018 00:00:00 13,0 9,5 0,0
14.08.2018 23:00:00 12,7 9,4 0,0
14.08.2018 22:00:00 13,1 10,7 0,0
14.08.2018 21:00:00 13,0 11,5 0,0
14.08.2018 20:00:00 13,7 12,3 0,0
14.08.2018 19:00:00 14,7 13,3 0,2
14.08.2018 18:00:00 14,4 13,3 0,2
14.08.2018 17:00:00 15,5 14,2 0,0
14.08.2018 16:00:00 16,3 14,8 0,2
14.08.2018 15:00:00 16,3 15,2 0,0
14.08.2018 14:00:00 15,6 14,7 0,2
14.08.2018 13:00:00 14,3 13,7 0,8
14.08.2018 12:00:00 14,2 13,4 2,2
14.08.2018 11:00:00 13,7 13,1 2,0
14.08.2018 10:00:00 13,3 12,7 0,0
14.08.2018 09:00:00 12,9 12,4 0,4
14.08.2018 08:00:00 12,9 12,5 0,0
14.08.2018 07:00:00 12,7 12,0 0,2
14.08.2018 06:00:00 12,6 11,6 0,0
14.08.2018 05:00:00 12,8 12,0 0,0
14.08.2018 04:00:00 12,4 11,9 0,0
14.08.2018 03:00:00 11,9 11,3 0,0
14.08.2018 02:00:00 12,5 12,2 0,0
14.08.2018 01:00:00 12,5 12,2 0,0
14.08.2018 00:00:00 12,6 12,3 0,2
13.08.2018 23:00:00 12,7 12,4 0,4
13.08.2018 22:00:00 13,2 12,9 0,4
13.08.2018 21:00:00 13,5 13,3 0,0
13.08.2018 20:00:00 13,9 13,6 0,8
13.08.2018 19:00:00 14,2 13,8 0,6
13.08.2018 18:00:00 14,2 13,7 0,2
13.08.2018 17:00:00 14,3 13,5 0,0
13.08.2018 16:00:00 14,6 13,4 0,0
13.08.2018 15:00:00 14,8 13,0 0,0
13.08.2018 14:00:00 15,0 13,1 0,0
13.08.2018 13:00:00 14,4 12,9 0,0
13.08.2018 12:00:00 13,6 12,5 0,0
13.08.2018 11:00:00 13,3 12,7 0,0
13.08.2018 10:00:00 12,7 12,3 0,4
13.08.2018 09:00:00 12,0 11,6 0,0

tt = Temperatura
td = dewpoint
rr = precipitazioni

Stazioni seguenti

WeatherPro
AMSI
MeteoEarth